TimeCDT,TemperatureF,Dew PointF,Humidity,Sea Level PressureIn,VisibilityMPH,Wind Direction,Wind SpeedMPH,Gust SpeedMPH,PrecipitationIn,Events,Conditions,WindDirDegrees,DateUTC
12:10 AM,42.8,39.2,87,29.74,10.0,NNE,11.5,18.4,0.05,Rain-Thunderstorm,Light Rain,20,2013-03-18 05:10:00
12:13 AM,42.8,39.2,87,29.73,10.0,NNE,13.8,-,0.05,Rain,Light Rain,30,2013-03-18 05:13:00
12:46 AM,42.8,39.2,87,29.73,9.0,North,11.5,-,0.06,Rain-Thunderstorm,Light Rain,10,2013-03-18 05:46:00
12:53 AM,42.1,39.0,89,29.73,4.0,NNE,13.8,-,0.08,Rain-Thunderstorm,Heavy Thunderstorms and Rain,20,2013-03-18 05:53:00
1:02 AM,41.0,37.4,87,29.72,2.0,North,11.5,-,0.12,Rain-Thunderstorm,Heavy Thunderstorms and Rain,10,2013-03-18 06:02:00
1:14 AM,41.0,37.4,87,29.73,5.0,NNE,9.2,-,0.18,Rain-Thunderstorm,Light Thunderstorms and Rain,20,2013-03-18 06:14:00
1:26 AM,41.0,37.4,87,29.72,2.0,NE,9.2,-,0.31,Rain-Thunderstorm,Heavy Thunderstorms and Rain,40,2013-03-18 06:26:00
1:33 AM,41.0,39.2,93,29.71,1.8,NE,11.5,-,0.37,Rain-Thunderstorm,Heavy Thunderstorms and Rain,40,2013-03-18 06:33:00
1:43 AM,41.0,39.2,93,29.70,2.0,NE,6.9,-,0.61,Rain-Thunderstorm,Light Thunderstorms and Rain,40,2013-03-18 06:43:00
1:51 AM,41.0,37.4,87,29.71,8.0,NNE,8.1,-,0.62,Rain-Thunderstorm,Light Thunderstorms and Rain,30,2013-03-18 06:51:00
1:53 AM,41.0,37.9,89,29.73,10.0,NNE,8.1,-,0.62,Rain-Thunderstorm,Light Thunderstorms and Rain,30,2013-03-18 06:53:00
2:06 AM,41.0,37.4,87,29.70,10.0,NNE,8.1,-,0.00,Thunderstorm,Overcast,30,2013-03-18 07:06:00
2:11 AM,41.0,37.4,87,29.70,10.0,NNE,9.2,-,0.00,Thunderstorm,Overcast,30,2013-03-18 07:11:00
2:27 AM,42.8,37.4,81,29.70,10.0,NNE,8.1,-,0.00,,Overcast,30,2013-03-18 07:27:00
2:53 AM,42.1,37.9,85,29.72,10.0,NNE,4.6,-,0.00,,Overcast,20,2013-03-18 07:53:00
3:53 AM,42.1,39.0,89,29.70,10.0,Calm,Calm,-,N/A,,Overcast,0,2013-03-18 08:53:00
4:00 AM,42.8,37.4,81,29.69,10.0,Calm,Calm,-,N/A,,Overcast,0,2013-03-18 09:00:00
4:09 AM,42.8,39.2,87,29.68,10.0,Calm,Calm,-,N/A,,Overcast,0,2013-03-18 09:09:00
4:44 AM,42.8,39.2,87,29.69,10.0,WSW,4.6,-,N/A,,Overcast,250,2013-03-18 09:44:00
4:53 AM,42.1,39.0,89,29.69,10.0,Calm,Calm,-,N/A,,Overcast,0,2013-03-18 09:53:00
5:29 AM,42.8,39.2,87,29.69,10.0,WNW,6.9,-,N/A,,Overcast,290,2013-03-18 10:29:00
5:53 AM,43.0,39.9,89,29.72,10.0,WSW,4.6,-,N/A,,Overcast,240,2013-03-18 10:53:00
6:19 AM,42.8,39.2,87,29.72,10.0,West,4.6,-,N/A,,Overcast,270,2013-03-18 11:19:00
6:53 AM,43.0,39.9,89,29.73,10.0,WNW,5.8,-,N/A,,Overcast,290,2013-03-18 11:53:00
7:53 AM,43.0,39.9,89,29.73,10.0,WNW,5.8,-,N/A,,Overcast,290,2013-03-18 12:53:00
8:53 AM,46.0,42.1,86,29.75,10.0,WSW,5.8,-,N/A,,Overcast,240,2013-03-18 13:53:00
9:16 AM,46.4,42.8,87,29.74,10.0,West,8.1,-,N/A,,Unknown,260,2013-03-18 14:16:00
9:46 AM,46.4,42.8,87,29.76,10.0,WNW,9.2,-,N/A,,Overcast,290,2013-03-18 14:46:00
9:53 AM,46.9,41.0,80,29.77,10.0,WNW,8.1,-,N/A,,Overcast,290,2013-03-18 14:53:00
10:53 AM,48.9,42.1,77,29.82,10.0,WNW,15.0,19.6,N/A,,Overcast,290,2013-03-18 15:53:00
11:53 AM,50.0,42.1,74,29.80,10.0,WNW,6.9,-,N/A,,Overcast,300,2013-03-18 16:53:00
12:53 PM,51.1,42.1,71,29.80,10.0,NNW,6.9,-,N/A,,Overcast,330,2013-03-18 17:53:00
1:53 PM,53.1,43.0,69,29.81,10.0,WNW,11.5,-,N/A,,Overcast,300,2013-03-18 18:53:00
2:53 PM,52.0,42.1,69,29.82,10.0,NW,15.0,-,N/A,,Overcast,320,2013-03-18 19:53:00
3:53 PM,51.1,39.9,66,29.84,10.0,NW,12.7,21.9,N/A,,Overcast,310,2013-03-18 20:53:00
4:53 PM,53.1,39.9,61,29.85,10.0,NW,16.1,23.0,N/A,,Partly Cloudy,310,2013-03-18 21:53:00
5:53 PM,55.0,39.0,55,29.86,10.0,WNW,8.1,-,N/A,,Clear,290,2013-03-18 22:53:00
6:53 PM,53.1,36.0,52,29.89,10.0,NW,12.7,-,N/A,,Clear,320,2013-03-18 23:53:00
7:53 PM,50.0,34.0,54,29.93,10.0,WNW,4.6,-,N/A,,Clear,300,2013-03-19 00:53:00
8:53 PM,45.0,35.1,68,29.95,10.0,WSW,3.5,-,N/A,,Clear,240,2013-03-19 01:53:00
9:53 PM,44.1,35.1,71,29.98,10.0,SW,4.6,-,N/A,,Clear,220,2013-03-19 02:53:00
10:53 PM,44.1,34.0,68,30.00,10.0,West,3.5,-,N/A,,Clear,260,2013-03-19 03:53:00
11:53 PM,43.0,35.1,74,30.03,10.0,West,3.5,-,N/A,,Clear,260,2013-03-19 04:53:00